FW2116 Weather Reports


time (UTC)temp
C
wind
direction
speed
KPH
gust
KPH
rain 1hr
cm
rain 24hr
cm
rain mn
cm
humidity
%
barometer
mb
20260507063027 11 36 0.0 4.8 0.00 0.00 0.00 78 1021.4
20260507062525 11 341 1.6 4.8 0.00 0.00 0.00 78 1021.3
20260507062025 11 271 0.0 4.8 0.00 0.00 0.00 78 1021.3
20260507061525 11 290 1.6 4.8 0.00 0.00 0.00 78 1021.4
20260507061024 11 328 0.0 4.8 0.00 0.00 0.00 78 1021.4
20260507060524 11 251 1.6 8.0 0.00 0.00 0.00 78 1021.4
20260507060024 12 313 0.0 8.0 0.00 0.00 0.00 78 1021.3
20260507055523 12 302 0.0 4.8 0.00 0.00 0.00 77 1021.4
20260507055022 12 314 0.0 4.8 0.00 0.00 0.00 77 1021.3
20260507054522 12 17 0.0 8.0 0.00 0.00 0.00 77 1021.3
20260507054024 12 298 1.6 9.7 0.00 0.00 0.00 77 1021.2
20260507053521 12 324 3.2 9.7 0.00 0.00 0.00 77 1021.3
20260507053020 12 327 1.6 9.7 0.00 0.00 0.00 76 1021.3
20260507052521 12 8 0.0 9.7 0.00 0.00 0.00 76 1021.3
20260507052021 12 311 1.6 6.4 0.00 0.00 0.00 76 1021.3
20260507051521 12 317 0.0 6.4 0.00 0.00 0.00 76 1021.4
20260507051020 12 295 0.0 9.7 0.00 0.00 0.00 76 1021.3
20260507050522 12 96 1.6 9.7 0.00 0.00 0.00 76 1021.3
20260507050037 12 309 0.0 4.8 0.00 0.00 0.00 76 1021.4
20260507045519 12 349 1.6 8.0 0.00 0.00 0.00 75 1021.3
20260507045020 12 343 3.2 11.3 0.00 0.00 0.00 75 1021.3
20260507044519 13 318 1.6 11.3 0.00 0.00 0.00 75 1021.3
20260507044018 13 292 1.6 11.3 0.00 0.00 0.00 75 1021.5
20260507043519 13 65 3.2 9.7 0.00 0.00 0.00 75 1021.3
20260507043018 13 349 1.6 8.0 0.00 0.00 0.00 75 1021.3
20260507042519 13 311 1.6 8.0 0.00 0.00 0.00 75 1021.3
20260507042018 13 248 0.0 11.3 0.00 0.00 0.00 75 1021.2
20260507041517 13 238 3.2 11.3 0.00 0.00 0.00 75 1021.2
20260507041019 13 110 0.0 11.3 0.00 0.00 0.00 75 1021.2
20260507040517 13 330 3.2 11.3 0.00 0.00 0.00 75 1021.3
20260507040016 13 42 1.6 12.9 0.00 0.00 0.00 74 1021.2
20260507035516 13 274 1.6 12.9 0.00 0.00 0.00 74 1021.1
20260507035017 13 338 4.8 12.9 0.00 0.00 0.00 74 1021.1
20260507034515 13 252 4.8 12.9 0.00 0.00 0.00 74 1020.9
20260507034015 14 283 1.6 9.7 0.00 0.00 0.00 74 1020.9
20260507033615 14 295 3.2 9.7 0.00 0.00 0.00 74 1020.8
20260507033016 14 241 3.2 6.4 0.00 0.00 0.00 74 1020.7
20260507032514 14 328 1.6 6.4 0.00 0.00 0.00 74 1020.7
20260507032014 14 188 0.0 11.3 0.00 0.00 0.00 74 1020.6
20260507031514 14 317 3.2 11.3 0.00 0.00 0.00 74 1020.6
20260507031015 15 328 3.2 9.7 0.00 0.00 0.00 74 1020.5
20260507030514 15 311 1.6 9.7 0.00 0.00 0.00 74 1020.5
20260507030016 15 345 0.0 9.7 0.00 0.00 0.00 74 1020.4
20260507025512 15 252 0.0 3.2 0.00 0.00 0.00 74 1020.3
20260507025013 15 122 0.0 9.7 0.00 0.00 0.00 74 1020.3
20260507024514 15 304 3.2 9.7 0.00 0.00 0.00 73 1020.1
20260507024012 15 256 0.0 9.7 0.00 0.00 0.00 73 1020.1
20260507023513 15 311 1.6 9.7 0.00 0.00 0.00 73 1020.1
20260507023011 15 325 1.6 12.9 0.00 0.00 0.00 73 1020.0
20260507022511 15 72 3.2 12.9 0.00 0.00 0.00 73 1020.0
20260507022013 15 299 1.6 6.4 0.00 0.00 0.00 73 1020.1
20260507021510 16 35 0.0 6.4 0.00 0.00 0.00 72 1020.1
20260507021011 16 17 0.0 11.3 0.00 0.00 0.00 72 1020.1
20260507020511 16 55 1.6 12.9 0.00 0.00 0.00 72 1020.1
20260507020011 16 298 3.2 9.7 0.00 0.00 0.00 72 1020.0
20260507015510 16 234 1.6 8.0 0.00 0.00 0.00 72 1020.1
20260507015012 16 294 1.6 8.0 0.00 0.00 0.00 72 1020.2
20260507014510 16 11 1.6 16.1 0.00 0.00 0.00 72 1020.2
20260507014009 16 284 3.2 16.1 0.00 0.00 0.00 71 1020.2
20260507013509 16 295 3.2 11.3 0.00 0.00 0.00 71 1020.3
20260507013008 16 34 3.2 11.3 0.00 0.00 0.00 71 1020.3
20260507012510 16 181 1.6 8.0 0.00 0.00 0.00 71 1020.2
20260507012011 17 94 1.6 8.0 0.00 0.00 0.00 71 1020.3
20260507011508 17 51 1.6 11.3 0.00 0.00 0.00 71 1020.2
20260507011007 17 198 3.2 11.3 0.00 0.00 0.00 70 1020.2
20260507010511 17 146 0.0 12.9 0.00 0.00 0.00 71 1020.2
20260507010009 17 23 3.2 12.9 0.00 0.00 0.00 70 1020.3
20260507005507 17 327 1.6 8.0 0.00 0.00 0.00 70 1020.2
20260507005007 17 336 1.6 11.3 0.00 0.00 0.00 69 1020.1
20260507004506 17 309 3.2 11.3 0.00 0.00 0.00 69 1020.2
20260507004007 18 208 0.0 11.3 0.00 0.00 0.00 69 1020.1
20260507003506 18 316 1.6 11.3 0.00 0.00 0.00 69 1020.1
20260507003005 18 110 1.6 6.4 0.00 0.00 0.00 68 1020.1
20260507002505 18 105 0.0 6.4 0.00 0.00 0.00 69 1020.1
20260507002005 18 335 0.0 11.3 0.00 0.00 0.00 70 1019.8
20260507001506 18 297 4.8 11.3 0.00 0.00 0.00 69 1019.9
20260507001006 18 327 1.6 6.4 0.00 0.00 0.00 69 1020.0
20260507000505 18 325 0.0 8.0 0.00 0.00 0.00 70 1019.9
20260507000006 18 283 0.0 11.3 0.00 0.00 0.00 70 1020.0
20260506235505 18 304 3.2 11.3 0.00 0.00 0.00 70 1019.9
20260506235003 18 264 3.2 9.7 0.00 0.00 0.00 70 1019.9
20260506234502 18 293 1.6 6.4 0.00 0.00 0.00 71 1019.9
20260506234002 18 277 1.6 8.0 0.00 0.00 0.00 70 1019.9
20260506233502 18 304 1.6 8.0 0.00 0.00 0.00 70 1020.0
20260506233002 18 302 1.6 8.0 0.00 0.00 0.00 70 1019.9
20260506232500 18 278 1.6 6.4 0.00 0.00 0.00 70 1020.0
20260506232101 18 34 0.0 4.8 0.00 0.00 0.00 71 1019.9
20260506231600 18 290 0.0 3.2 0.00 0.00 0.00 71 1020.0
20260506231101 18 98 0.0 4.8 0.00 0.00 0.00 71 1019.9
20260506230559 18 98 0.0 4.8 0.00 0.00 0.00 70 1020.0
20260506230104 18 61 0.0 3.2 0.00 0.00 0.00 70 1020.0
20260506225558 19 99 0.0 3.2 0.00 0.00 0.00 70 1020.2
20260506225059 18 321 0.0 4.8 0.00 0.00 0.00 70 1020.2
20260506224557 18 276 0.0 4.8 0.00 0.00 0.00 70 1020.2
20260506224058 18 318 0.0 1.6 0.00 0.00 0.00 70 1020.4
20260506223559 18 273 0.0 3.2 0.00 0.00 0.00 71 1020.3
20260506223103 18 108 0.0 6.4 0.00 0.00 0.00 72 1020.3
20260506222556 18 101 0.0 6.4 0.00 0.00 0.00 71 1020.5
20260506222056 18 309 1.6 6.4 0.00 0.00 0.00 70 1020.6
20260506221603 18 79 0.0 4.8 0.00 0.00 0.00 71 1020.5
20260506221056 18 297 0.0 4.8 0.00 0.00 0.00 72 1020.5
20260506220555 18 136 0.0 3.2 0.00 0.00 0.00 72 1020.5
20260506220056 18 245 0.0 4.8 0.00 0.00 0.00 70 1020.5
20260506215554 18 102 0.0 3.2 0.00 0.00 0.00 70 1020.5
20260506215054 18 338 0.0 3.2 0.00 0.00 0.00 69 1020.5
20260506214559 18 238 0.0 1.6 0.00 0.00 0.00 68 1020.6
20260506214053 18 251 0.0 4.8 0.00 0.00 0.00 69 1020.5
20260506213555 18 167 0.0 4.8 0.00 0.00 0.00 70 1020.6
20260506213057 18 85 0.0 3.2 0.00 0.00 0.00 70 1020.6
20260506212551 18 145 0.0 4.8 0.00 0.00 0.00 70 1020.5
20260506212051 18 139 1.6 4.8 0.00 0.00 0.00 70 1020.6
20260506211553 18 151 0.0 1.6 0.00 0.00 0.00 71 1020.7
20260506211051 17 95 0.0 3.2 0.00 0.00 0.00 71 1020.9
20260506210549 18 124 0.0 3.2 0.00 0.00 0.00 71 1020.9
20260506210049 18 116 0.0 4.8 0.00 0.00 0.00 71 1020.9
20260506205546 17 210 0.0 4.8 0.00 0.00 0.00 72 1020.9
20260506205045 17 258 0.0 4.8 0.00 0.00 0.00 73 1020.9
20260506204546 17 238 1.6 4.8 0.00 0.00 0.00 73 1021.1
20260506204044 17 276 0.0 3.2 0.00 0.00 0.00 73 1021.1
20260506203544 17 128 0.0 3.2 0.00 0.00 0.00 73 1021.0
20260506203044 17 353 0.0 3.2 0.00 0.00 0.00 72 1021.1
20260506202543 17 128 0.0 4.8 0.00 0.00 0.00 74 1021.1
20260506202046 17 253 0.0 4.8 0.00 0.00 0.00 73 1020.9
20260506201542 17 337 0.0 3.2 0.00 0.00 0.00 74 1020.9
20260506201043 16 273 0.0 1.6 0.00 0.00 0.00 74 1021.0
20260506200539 16 103 0.0 3.2 0.00 0.00 0.00 75 1021.0
20260506200038 16 225 0.0 3.2 0.00 0.00 0.00 76 1021.1
20260506195537 16 265 0.0 1.6 0.00 0.00 0.00 75 1021.1
20260506195038 16 253 0.0 4.8 0.00 0.00 0.00 75 1021.2
20260506194542 16 274 0.0 4.8 0.00 0.00 0.00 75 1021.2
20260506194037 16 291 1.6 3.2 0.00 0.00 0.00 75 1021.2
20260506193537 16 281 0.0 3.2 0.00 0.00 0.00 75 1021.3
20260506193046 16 127 0.0 1.6 0.00 0.00 0.00 75 1021.4
20260506192536 16 47 0.0 3.2 0.00 0.00 0.00 76 1021.4
20260506192035 16 49 0.0 3.2 0.00 0.00 0.00 76 1021.4
20260506191534 16 123 0.0 1.6 0.00 0.00 0.00 75 1021.3
20260506191034 16 151 0.0 3.2 0.00 0.00 0.00 75 1021.4
20260506190534 15 151 0.0 3.2 0.00 0.00 0.00 75 1021.3
20260506190032 15 243 0.0 1.6 0.00 0.00 0.00 76 1021.2
20260506185532 15 280 0.0 1.6 0.00 0.00 0.00 75 1021.1
20260506185034 15 300 0.0 3.2 0.00 0.00 0.00 76 1021.2
20260506184537 15 262 0.0 3.2 0.00 0.00 0.00 76 1021.1
20260506184032 15 290 0.0 1.6 0.00 0.00 0.00 75 1021.2
20260506183531 15 205 0.0 0.0 0.00 0.00 0.00 76 1021.2
20260506183029 15 168 0.0 1.6 0.00 0.00 0.00 76 1021.2
20260506182528 15 321 0.0 1.6 0.00 0.00 0.00 77 1021.1
20260506182027 15 314 0.0 1.6 0.00 0.00 0.00 76 1021.0
20260506181536 15 91 0.0 3.2 0.00 0.00 0.00 77 1021.0
20260506181026 15 8 0.0 3.2 0.00 0.00 0.00 77 1021.1
20260506180527 15 271 0.0 6.4 0.00 0.00 0.00 76 1021.1
20260506180026 15 291 1.6 6.4 0.00 0.00 0.00 77 1021.1
20260506175529 15 342 0.0 4.8 0.00 0.00 0.00 77 1021.0
20260506175024 14 333 1.6 4.8 0.00 0.00 0.00 77 1020.9
20260506174624 15 310 1.6 4.8 0.00 0.00 0.00 77 1021.0
20260506174026 14 335 0.0 3.2 0.00 0.00 0.00 77 1020.9
20260506173525 14 318 0.0 3.2 0.00 0.00 0.00 77 1020.9
20260506173033 14 312 0.0 4.8 0.00 0.00 0.00 78 1020.9
20260506172520 14 326 1.6 6.4 0.00 0.00 0.00 78 1020.9
20260506172020 14 276 0.0 6.4 0.00 0.00 0.00 77 1020.8
20260506171520 14 344 0.0 3.2 0.00 0.00 0.00 78 1020.8
20260506171020 14 15 0.0 6.4 0.00 0.00 0.00 78 1020.8
20260506170521 14 311 1.6 6.4 0.00 0.00 0.00 78 1020.8
20260506170018 14 12 0.0 3.2 0.00 0.00 0.00 78 1020.9
20260506165520 13 333 0.0 4.8 0.00 0.00 0.00 78 1020.8
20260506165021 13 313 0.0 4.8 0.00 0.00 0.00 78 1020.9
20260506164518 13 227 0.0 4.8 0.00 0.00 0.00 78 1020.9
20260506164017 13 44 0.0 6.4 0.00 0.00 0.00 78 1021.0
20260506163517 13 285 1.6 6.4 0.00 0.00 0.00 78 1020.8
20260506163022 13 263 0.0 6.4 0.00 0.00 0.00 79 1020.9
20260506162516 13 244 0.0 6.4 0.00 0.00 0.00 78 1020.8
20260506162020 13 346 3.2 6.4 0.00 0.00 0.00 78 1020.9
20260506161517 13 293 0.0 3.2 0.00 0.00 0.00 78 1020.8
20260506161020 13 311 0.0 3.2 0.00 0.00 0.00 79 1020.7
20260506160518 13 297 0.0 3.2 0.00 0.00 0.00 78 1020.7
20260506160018 13 227 0.0 3.2 0.00 0.00 0.00 79 1020.6
20260506155515 13 271 1.6 3.2 0.00 0.00 0.00 78 1020.4
20260506155015 13 307 0.0 3.2 0.00 0.00 0.00 79 1020.4
20260506154515 13 309 0.0 1.6 0.00 0.00 0.00 80 1020.0
20260506154015 13 124 0.0 1.6 0.00 0.00 0.00 80 1020.1
20260506153515 13 281 0.0 1.6 0.00 0.00 0.00 81 1020.2
20260506153021 12 110 0.0 3.2 0.00 0.00 0.00 82 1020.4
20260506152514 12 127 0.0 3.2 0.00 0.00 0.00 82 1020.4
20260506152014 12 36 0.0 3.2 0.00 0.00 0.00 82 1020.7
20260506151513 12 293 0.0 4.8 0.00 0.00 0.00 82 1020.8
20260506151013 12 47 0.0 4.8 0.00 0.00 0.00 82 1020.8
20260506150513 12 240 0.0 4.8 0.00 0.00 0.00 82 1020.8
20260506150017 12 250 0.0 4.8 0.00 0.00 0.00 82 1020.8
20260506145514 12 13 0.0 4.8 0.00 0.00 0.00 83 1020.8
20260506145012 12 300 0.0 4.8 0.00 0.00 0.00 83 1020.8
20260506144513 12 306 0.0 1.6 0.00 0.00 0.00 83 1020.6
20260506144011 12 296 0.0 9.7 0.00 0.00 0.00 83 1020.6
20260506143511 12 59 1.6 9.7 0.00 0.00 0.00 83 1020.6
20260506143021 12 294 0.0 4.8 0.00 0.00 0.00 83 1020.6
20260506142510 12 307 0.0 4.8 0.00 0.00 0.00 83 1020.5
20260506142008 12 339 0.0 1.6 0.00 0.00 0.00 84 1020.3
20260506141508 12 349 0.0 1.6 0.00 0.00 0.00 84 1020.1
20260506141008 12 292 0.0 3.2 0.00 0.00 0.00 84 1020.1
20260506140507 12 27 0.0 4.8 0.00 0.00 0.00 84 1020.0
20260506140013 12 59 0.0 4.8 0.00 0.00 0.00 84 1020.1
20260506135507 12 313 0.0 4.8 0.00 0.00 0.00 84 1020.1
20260506135006 12 273 1.6 6.4 0.00 0.00 0.00 84 1020.0
20260506134505 12 293 1.6 6.4 0.00 0.00 0.00 84 1019.9
20260506134005 12 231 0.0 3.2 0.00 0.00 0.00 84 1019.9
20260506133508 12 285 0.0 3.2 0.00 0.00 0.00 84 1019.8
20260506133004 12 277 1.6 3.2 0.00 0.00 0.00 84 1019.9
20260506132503 12 259 0.0 4.8 0.00 0.00 0.00 84 1019.8
20260506132002 12 314 0.0 4.8 0.00 0.00 0.00 84 1019.7
20260506131507 12 276 0.0 3.2 0.00 0.00 0.00 84 1019.5
20260506131101 12 269 0.0 3.2 0.00 0.00 0.00 84 1019.5
20260506130601 12 236 0.0 1.6 0.00 0.00 0.00 84 1019.4
20260506130122 12 236 0.0 3.2 0.00 0.00 0.00 84 1019.3
20260506125559 12 236 0.0 3.2 0.00 0.00 0.00 84 1019.3
20260506125059 12 278 0.0 1.6 0.00 0.00 0.00 84 1019.3
20260506124600 12 25 0.0 1.6 0.00 0.00 0.00 84 1019.3
20260506124058 12 25 0.0 1.6 0.00 0.00 0.00 83 1019.2
20260506123558 12 25 0.0 1.6 0.00 0.00 0.00 83 1019.2
20260506123058 12 29 0.0 1.6 0.00 0.00 0.00 83 1019.1
20260506122557 12 269 0.0 1.6 0.00 0.00 0.00 83 1019.2
20260506122056 12 251 0.0 1.6 0.00 0.00 0.00 83 1019.3
20260506121556 12 333 0.0 1.6 0.00 0.00 0.00 83 1019.2
20260506121056 12 333 0.0 1.6 0.00 0.00 0.00 83 1019.2
20260506120559 12 308 0.0 6.4 0.00 0.00 0.00 83 1019.2
20260506120056 12 289 0.0 6.4 0.00 0.00 0.00 83 1019.2
20260506115559 12 254 0.0 3.2 0.00 0.00 0.00 83 1019.1
20260506115055 12 221 0.0 1.6 0.00 0.00 0.00 83 1019.0
20260506114603 12 311 0.0 4.8 0.00 0.00 0.00 83 1019.1
20260506114053 12 283 0.0 3.2 0.00 0.00 0.00 83 1019.0
20260506113553 12 332 0.0 3.2 0.00 0.00 0.00 83 1018.9
20260506113053 12 25 0.0 4.8 0.00 0.00 0.00 83 1018.9
20260506112553 12 25 0.0 4.8 0.00 0.00 0.00 83 1018.9
20260506112055 12 301 0.0 3.2 0.00 0.00 0.00 83 1019.0
20260506111551 12 346 0.0 3.2 0.00 0.00 0.00 83 1018.8
20260506111051 12 7 0.0 3.2 0.00 0.00 0.00 83 1018.8
20260506110551 12 301 0.0 3.2 0.00 0.00 0.00 83 1018.8
20260506110050 12 1 0.0 4.8 0.00 0.00 0.00 83 1018.6
20260506105550 12 302 0.0 4.8 0.00 0.00 0.00 83 1018.6
20260506105049 12 248 1.6 4.8 0.00 0.00 0.00 83 1018.5
20260506104610 12 15 0.0 3.2 0.00 0.00 0.00 82 1018.5
20260506104048 13 347 0.0 4.8 0.00 0.00 0.00 82 1018.4
20260506103548 13 326 0.0 4.8 0.00 0.00 0.00 82 1018.3
20260506103047 13 263 0.0 1.6 0.00 0.00 0.00 82 1018.3
20260506102547 13 25 0.0 1.6 0.00 0.00 0.00 83 1018.3
20260506102046 13 25 0.0 1.6 0.00 0.00 0.00 82 1018.2
20260506101549 13 279 0.0 3.2 0.00 0.00 0.00 82 1018.2
20260506101045 13 18 0.0 1.6 0.00 0.00 0.00 82 1018.1
20260506100545 13 122 0.0 0.0 0.00 0.00 0.00 82 1018.1
20260506100046 13 122 0.0 1.6 0.00 0.00 0.00 82 1018.0
20260506095547 13 226 0.0 1.6 0.00 0.00 0.00 82 1018.0
20260506095044 13 256 0.0 4.8 0.00 0.00 0.00 82 1018.1
20260506094544 13 287 0.0 6.4 0.00 0.00 0.00 82 1018.0
20260506094043 13 285 0.0 6.4 0.00 0.00 0.00 82 1017.9
20260506093542 13 304 0.0 3.2 0.00 0.00 0.00 82 1018.0
20260506093042 13 309 0.0 3.2 0.00 0.00 0.00 82 1017.8
20260506092542 13 244 0.0 1.6 0.00 0.00 0.00 82 1017.8
20260506092042 13 246 0.0 1.6 0.00 0.00 0.00 82 1017.9
20260506091541 13 265 0.0 1.6 0.00 0.00 0.00 82 1017.9
20260506091044 13 286 0.0 4.8 0.00 0.00 0.00 82 1017.8
20260506090540 13 281 0.0 4.8 0.00 0.00 0.00 81 1017.8
20260506090045 13 300 0.0 3.2 0.00 0.00 0.00 81 1017.7
20260506085539 13 312 0.0 4.8 0.00 0.00 0.00 81 1017.8
20260506085041 13 273 0.0 4.8 0.00 0.00 0.00 81 1017.7
20260506084539 13 26 0.0 1.6 0.00 0.00 0.00 81 1017.9
20260506084038 13 34 0.0 3.2 0.00 0.00 0.00 81 1017.9
20260506083537 13 278 0.0 3.2 0.00 0.00 0.00 81 1017.8
20260506083042 13 321 0.0 3.2 0.00 0.00 0.00 81 1017.8
20260506082536 13 236 0.0 3.2 0.00 0.00 0.00 81 1017.8
20260506082036 13 328 0.0 3.2 0.00 0.00 0.00 81 1017.9
20260506081535 13 265 0.0 1.6 0.00 0.00 0.00 81 1017.8
20260506081036 13 304 0.0 1.6 0.00 0.00 0.00 81 1017.8
20260506080535 13 333 0.0 1.6 0.00 0.00 0.00 81 1017.7
20260506073031 13 330 0.0 0.0 0.00 0.00 0.00 80 1017.4
20260506072531 13 330 0.0 0.0 0.00 0.00 0.00 80 1017.5
20260506072030 13 330 0.0 1.6 0.00 0.00 0.00 80 1017.4
20260506071529 13 1 0.0 1.6 0.00 0.00 0.00 80 1017.5
20260506071029 13 43 0.0 3.2 0.00 0.00 0.00 80 1017.4
20260506070528 14 321 0.0 0.0 0.00 0.00 0.00 80 1017.3